User: anonymous   Login
Location: Copeville
(33.0796°N, 96.4155°W)
Time: 06:02:00
(UTC+00:00)
Language:

ISS - Orbit

View from above orbital plane
View from above orbital plane
View from above satellite
View from above satellite

Ground track
Ground track

The orbit data is extracted from the following two-line orbital elements,

1 25544U 98067A   24175.80163596  .00016438  00000-0  29819-3 0  9991
2 25544  51.6420 282.5238 0011049   0.7596 137.5573 15.49678122459578
Epoch (UTC): 23 June 2024 19:14:21
Eccentricity: 0.0011049
inclination: 51.6420°
perigee height: 410 km
apogee height: 425 km
right ascension of ascending node: 282.5238°
argument of perigee: 0.7596°
revolutions per day: 15.49678122
mean anomaly at epoch: 137.5573°
orbit number at epoch: 45957

The dashed part of the orbit path shows where the satellite is in the earth's shadow,  

DLR